Back to catalog

ORBCOMM FM 36 DEB

AliveLEO
NORAD 56437·DEBRIS·🇺🇸 United States

Launched Dec 4, 1999 from Cape Canaveral Space Force Station

Loading…

Next Passes (next 24 hours)

TLE

FreshSource: Space-Track

Epoch: Sep 14, 2026, 11:58 UTC

1 56437U 99065N   26257.49885044  .00000240  00000-0  12109-3 0  9990
2 56437  44.9399  70.4506 0017157 146.1582 214.0364 14.39593796184611

Track ORBCOMM FM 36 DEB in real time with AllMySat

Download on the App Store